Weather in Vershino-Bidzha

Russia / Republic of Khakassia     53°58′46″N   90°58′19″E
temp.,
°C
wind,
m/s
gust,
m/s
humid.,
%
clouds,
%
prec.,
mm/h
press.,
hPa
HPBL,
m
29 june, wed
wed2901:00+14nne00611 0.0 101010
04:00+13nnw22665 0.0 100911
07:00+16ne11616 0.0 1009179
10:00+20sse23520 0.0 10071092
13:00+23ssw34380 0.0 10051772
16:00+25sse45360 0.0 10032020
19:00+24se56450 0.0 1001494
22:00+18se226936 0.0 100124
30 june, thu
thu3001:00+17ssw1174100 0.0 100015
04:00+16sw1169100 0.0 99812
07:00+19s246782 0.1 998161
10:00+23s3454100 0.0 998381
13:00+27s3442100 0.0 9981107
16:00+28w91039100 0.0 9972335
19:00+18nne1289100 2.5 1003145
22:00+16ssw259597 2.0 1003254
1 july, fri
fri101:00+16sse3597100 3.1 1002247
04:00+15ssw229698 0.7 100233
07:00+16s019185 1.9 1003114
10:00+19sse337523 2.0 1003650
13:00+23se2355100 3.2 10021326
16:00+20n3372100 1.8 1002259
19:00+17wnw247989 10.1 1004159
22:00+16w3673100 0.8 1006147
2 july, sat
sat201:00+13wnw3670100 0.8 1008117
04:00+12sw2272100 0.0 100816
07:00+14wsw24715 0.0 1009232
10:00+17nw125529 0.1 10091078
13:00+18wnw255121 0.4 10081303
16:00+20nw254138 0.0 10082116
19:00+18nnw245549 0.0 1008540
22:00+14nnw11667 0.0 100911
3 july, sun
sun301:00+13wnw2260100 0.0 100915
04:00+13nw2260100 0.0 100913
07:00+15nnw1162100 0.0 100990
10:00+18e115184 0.0 10091379
13:00+18e225189 0.1 10091258
16:00+20ene224871 0.0 10081138
19:00+19ese335129 0.0 1007625
22:00+15e11665 0.0 100711